• En España
  • Lista de Países
  • Para 7 días
  • Temperatura del Agua
  • Mapas de los Satélites
  • Mapa del Tiempo
  • Widgets del Tiempo
  • user-avatar
    Iniciar Sesión

    Tiempo cada hora Meppel

    Hoy, 24 Julio, Domingo

    Tiempo Temperatura Precipitación Viento Presión Humedad
    00:00 +19°C° 0 mm 1 mps 764 mmHg 96%
    01:00 +19°C° 0,2 mm 1 mps 764 mmHg 96%
    02:00 +19°C° 0,2 mm 1 mps 764 mmHg 96%
    03:00 +18°C° 0,2 mm 1 mps 764 mmHg 96%
    04:00 +19°C° 0,1 mm 1 mps 764 mmHg 94%
    05:00 +20°C° 0,1 mm 1 mps 764 mmHg 92%
    06:00 +19°C° 0,1 mm 0 mps 764 mmHg 90%
    07:00 +21°C° 0,3 mm 0 mps 764 mmHg 86%
    08:00 +24°C° 0,3 mm 1 mps 764 mmHg 81%
    09:00 +25°C° 0,3 mm 1 mps 764 mmHg 76%
    10:00 +26°C° 0,7 mm 1 mps 764 mmHg 72%
    11:00 +26°C° 0,7 mm 1 mps 764 mmHg 69%
    12:00 +27°C° 0,7 mm 2 mps 764 mmHg 65%
    13:00 +27°C° 0,3 mm 2 mps 764 mmHg 65%
    14:00 +27°C° 0,3 mm 2 mps 764 mmHg 65%
    15:00 +27°C° 0,3 mm 2 mps 763 mmHg 65%
    16:00 +27°C° 0,2 mm 2 mps 763 mmHg 69%
    17:00 +26°C° 0,2 mm 2 mps 763 mmHg 73%
    18:00 +25°C° 0,2 mm 2 mps 763 mmHg 77%
    19:00 +23°C° 0 mm 2 mps 763 mmHg 81%
    20:00 +21°C° 0 mm 2 mps 763 mmHg 85%
    21:00 +19°C° 0 mm 2 mps 763 mmHg 89%
    22:00 +18°C° 0,1 mm 2 mps 763 mmHg 89%
    23:00 +18°C° 0,1 mm 2 mps 763 mmHg 89%

    Mañana, 25 Julio, Lunes

    Tiempo Temperatura Precipitación Viento Presión Humedad
    00:00 +18°C° 0,1 mm 2 mps 763 mmHg 89%
    01:00 +17°C° 0 mm 2 mps 763 mmHg 90%
    02:00 +17°C° 0 mm 2 mps 763 mmHg 90%
    03:00 +16°C° 0 mm 2 mps 763 mmHg 90%
    04:00 +17°C° 0 mm 3 mps 763 mmHg 89%
    05:00 +18°C° 0 mm 3 mps 763 mmHg 89%
    06:00 +19°C° 0 mm 3 mps 763 mmHg 88%
    07:00 +19°C° 0 mm 3 mps 763 mmHg 86%
    08:00 +20°C° 0 mm 4 mps 763 mmHg 85%
    09:00 +21°C° 0 mm 4 mps 763 mmHg 84%
    10:00 +22°C° 0,1 mm 4 mps 763 mmHg 81%
    11:00 +22°C° 0,1 mm 4 mps 763 mmHg 78%
    12:00 +23°C° 0,1 mm 4 mps 763 mmHg 74%
    13:00 +23°C° 0,2 mm 5 mps 763 mmHg 73%
    14:00 +23°C° 0,2 mm 5 mps 763 mmHg 71%
    15:00 +23°C° 0,2 mm 5 mps 763 mmHg 70%
    16:00 +22°C° 0 mm 4 mps 763 mmHg 72%
    17:00 +21°C° 0 mm 4 mps 763 mmHg 75%
    18:00 +20°C° 0 mm 3 mps 763 mmHg 77%
    19:00 +19°C° 0 mm 3 mps 764 mmHg 82%
    20:00 +17°C° 0 mm 2 mps 764 mmHg 87%
    21:00 +15°C° 0 mm 2 mps 764 mmHg 92%
    22:00 +14°C° 0 mm 2 mps 764 mmHg 93%
    23:00 +14°C° 0 mm 1 mps 764 mmHg 93%

    Pasado mañana, 26 Julio, Martes

    Tiempo Temperatura Precipitación Viento Presión Humedad
    00:00 +13°C° 0 mm 1 mps 764 mmHg 94%
    01:00 +13°C° 0 mm 2 mps 764 mmHg 93%
    02:00 +13°C° 0 mm 2 mps 764 mmHg 93%
    03:00 +13°C° 0 mm 2 mps 764 mmHg 93%
    04:00 +15°C° 0 mm 2 mps 764 mmHg 91%
    05:00 +16°C° 0 mm 3 mps 764 mmHg 88%
    06:00 +17°C° 0 mm 3 mps 764 mmHg 86%
    07:00 +18°C° 0,1 mm 3 mps 764 mmHg 83%
    08:00 +19°C° 0,1 mm 3 mps 764 mmHg 80%
    09:00 +20°C° 0,1 mm 3 mps 765 mmHg 77%
    10:00 +20°C° 0,2 mm 3 mps 765 mmHg 75%
    11:00 +21°C° 0,2 mm 3 mps 765 mmHg 74%
    12:00 +21°C° 0,2 mm 3 mps 765 mmHg 73%
    13:00 +21°C° 0 mm 3 mps 765 mmHg 70%
    14:00 +22°C° 0 mm 3 mps 765 mmHg 67%
    15:00 +22°C° 0 mm 4 mps 765 mmHg 64%
    16:00 +21°C° 0 mm 3 mps 765 mmHg 68%
    17:00 +21°C° 0 mm 3 mps 765 mmHg 71%
    18:00 +20°C° 0 mm 2 mps 765 mmHg 75%
    19:00 +18°C° 0 mm 2 mps 765 mmHg 80%
    20:00 +16°C° 0 mm 2 mps 765 mmHg 85%
    21:00 +14°C° 0 mm 2 mps 765 mmHg 90%
    22:00 +14°C° 0 mm 1 mps 765 mmHg 91%
    23:00 +13°C° 0 mm 1 mps 765 mmHg 92%

    27 Julio, Miércoles

    Tiempo Temperatura Precipitación Viento Presión Humedad
    00:00 +12°C° 0 mm 1 mps 765 mmHg 93%
    01:00 +12°C° 0 mm 1 mps 765 mmHg 93%
    02:00 +12°C° 0 mm 1 mps 764 mmHg 93%
    03:00 +12°C° 0 mm 1 mps 764 mmHg 93%
    04:00 +13°C° 0 mm 1 mps 764 mmHg 90%
    05:00 +15°C° 0 mm 2 mps 764 mmHg 87%
    06:00 +16°C° 0 mm 2 mps 764 mmHg 83%
    07:00 +18°C° 0 mm 2 mps 764 mmHg 78%
    08:00 +19°C° 0 mm 2 mps 764 mmHg 72%
    09:00 +21°C° 0 mm 3 mps 764 mmHg 67%
    10:00 +21°C° 0,1 mm 3 mps 764 mmHg 65%
    11:00 +22°C° 0,1 mm 3 mps 764 mmHg 64%
    12:00 +22°C° 0,1 mm 3 mps 763 mmHg 63%
    13:00 +22°C° 0,1 mm 3 mps 763 mmHg 66%
    14:00 +22°C° 0,1 mm 3 mps 763 mmHg 69%
    15:00 +21°C° 0,1 mm 3 mps 763 mmHg 72%
    16:00 +21°C° 0 mm 3 mps 763 mmHg 74%
    17:00 +21°C° 0 mm 2 mps 763 mmHg 76%
    18:00 +20°C° 0 mm 2 mps 762 mmHg 78%
    19:00 +19°C° 0 mm 2 mps 762 mmHg 81%
    20:00 +18°C° 0 mm 2 mps 762 mmHg 85%
    21:00 +16°C° 0 mm 2 mps 762 mmHg 89%
    22:00 +16°C° 0 mm 2 mps 762 mmHg 88%
    23:00 +16°C° 0 mm 2 mps 762 mmHg 88%

    28 Julio, Jueves

    Tiempo Temperatura Precipitación Viento Presión Humedad
    00:00 +16°C° 0 mm 2 mps 762 mmHg 87%
    01:00 +16°C° 0 mm 3 mps 761 mmHg 88%
    02:00 +16°C° 0 mm 3 mps 761 mmHg 88%
    03:00 +16°C° 0 mm 3 mps 761 mmHg 88%
    04:00 +15°C° 0 mm 4 mps 761 mmHg 88%
    05:00 +17°C° 0 mm 4 mps 761 mmHg 88%
    06:00 +17°C° 0 mm 4 mps 761 mmHg 88%
    07:00 +17°C° 0,1 mm 5 mps 761 mmHg 85%
    08:00 +20°C° 0,1 mm 5 mps 761 mmHg 82%
    09:00 +21°C° 0,1 mm 5 mps 761 mmHg 79%
    10:00 +21°C° 0,4 mm 5 mps 760 mmHg 77%
    11:00 +22°C° 0,4 mm 5 mps 760 mmHg 75%
    12:00 +22°C° 0,4 mm 5 mps 760 mmHg 73%
    13:00 +22°C° 0,5 mm 5 mps 760 mmHg 74%
    14:00 +22°C° 0,5 mm 5 mps 759 mmHg 75%
    15:00 +22°C° 0,5 mm 4 mps 759 mmHg 76%
    16:00 +22°C° 0,2 mm 4 mps 759 mmHg 79%
    17:00 +22°C° 0,2 mm 4 mps 759 mmHg 82%
    18:00 +21°C° 0,2 mm 3 mps 758 mmHg 85%
    19:00 +20°C° 0,2 mm 3 mps 758 mmHg 88%
    20:00 +19°C° 0,2 mm 4 mps 758 mmHg 91%
    21:00 +18°C° 0,2 mm 4 mps 758 mmHg 95%
    22:00 +18°C° 0,1 mm 4 mps 757 mmHg 95%
    23:00 +17°C° 0,1 mm 4 mps 757 mmHg 95%

    29 Julio, Viernes

    Tiempo Temperatura Precipitación Viento Presión Humedad
    00:00 +17°C° 0,1 mm 4 mps 757 mmHg 96%
    01:00 +18°C° 0,2 mm 4 mps 756 mmHg 96%
    02:00 +17°C° 0,2 mm 5 mps 756 mmHg 95%
    03:00 +17°C° 0,2 mm 5 mps 756 mmHg 95%
    04:00 +17°C° 0,2 mm 5 mps 756 mmHg 95%
    05:00 +17°C° 0,2 mm 6 mps 755 mmHg 94%
    06:00 +17°C° 0,2 mm 6 mps 755 mmHg 93%
    07:00 +19°C° 0,2 mm 6 mps 756 mmHg 90%
    08:00 +19°C° 0,2 mm 6 mps 756 mmHg 88%
    09:00 +20°C° 0,2 mm 7 mps 756 mmHg 85%
    10:00 +21°C° 0,5 mm 6 mps 756 mmHg 83%
    11:00 +21°C° 0,5 mm 6 mps 756 mmHg 80%
    12:00 +22°C° 0,5 mm 6 mps 756 mmHg 78%
    13:00 +22°C° 0,6 mm 6 mps 756 mmHg 77%
    14:00 +22°C° 0,6 mm 5 mps 756 mmHg 76%
    15:00 +22°C° 0,6 mm 5 mps 756 mmHg 75%
    16:00 +22°C° 0,3 mm 4 mps 756 mmHg 77%
    17:00 +21°C° 0,3 mm 3 mps 757 mmHg 80%
    18:00 +21°C° 0,3 mm 3 mps 757 mmHg 82%
    19:00 +19°C° 0,1 mm 2 mps 757 mmHg 86%
    20:00 +18°C° 0,1 mm 2 mps 757 mmHg 90%
    21:00 +16°C° 0,1 mm 2 mps 758 mmHg 94%
    22:00 +16°C° 0 mm 2 mps 758 mmHg 95%
    23:00 +15°C° 0 mm 1 mps 758 mmHg 95%
    Mostrar más